FW6369 Weather Reports


Display with metric or nautical units.
time (UTC)temp
F
wind
direction
speed
MPH
gust
MPH
rain 1hr
in
rain 24hr
in
rain mn
in
humidity
%
barometer
mb
20260905160100 58 0 0.0 2.0 0.00 0.00 0.00 84 1014.9
20260905154619 57 0 0.0 2.0 0.00 0.00 0.00 86 1014.9
20260905153103 57 0 0.0 0.0 0.00 0.00 0.00 88 1014.9
20260905151607 56 0 0.0 1.0 0.00 0.00 0.00 89 1014.9
20260905150058 56 0 0.0 0.0 0.00 0.00 0.00 94 1014.6
20260905144600 51 0 0.0 0.0 0.00 0.00 0.00 96 1014.7
20260905143057 48 0 0.0 0.0 0.00 0.00 0.00 96 1014.8
20260905141559 47 0 0.0 0.0 0.00 0.00 0.00 95 1014.7
20260905140106 47 0 0.0 0.0 0.00 0.00 0.00 95 1014.6
20260905134558 47 0 0.0 0.0 0.00 0.00 0.00 95 1014.5
20260905133058 48 0 0.0 0.0 0.00 0.00 0.00 95 1014.4
20260905131607 48 0 0.0 0.0 0.00 0.00 0.00 95 1014.5
20260905130057 48 0 0.0 0.0 0.00 0.00 0.00 95 1014.4
20260905124603 48 0 0.0 0.0 0.00 0.00 0.00 95 1014.4
20260905123058 48 0 0.0 0.0 0.00 0.00 0.00 94 1014.2
20260905121555 49 0 0.0 0.0 0.00 0.00 0.00 94 1014.3
20260905114600 49 0 0.0 0.0 0.00 0.00 0.00 94 1014.5
20260905113100 49 0 0.0 0.0 0.00 0.00 0.00 94 1014.5
20260905111610 50 0 0.0 0.0 0.00 0.00 0.00 93 1014.5
20260905104615 50 0 0.0 1.0 0.00 0.00 0.00 93 1014.5
20260905103058 51 75 0.0 2.0 0.00 0.00 0.00 93 1014.6
20260905101603 51 0 0.0 1.0 0.00 0.00 0.00 94 1014.5
20260905100101 51 72 0.0 1.0 0.00 0.00 0.00 93 1014.5
20260905094553 52 0 0.0 1.0 0.00 0.00 0.00 93 1014.6
20260905093103 52 0 0.0 1.0 0.00 0.00 0.00 93 1014.6
20260905091614 52 0 0.0 0.0 0.00 0.00 0.00 92 1014.6
20260905090059 52 0 0.0 1.0 0.00 0.00 0.00 92 1014.7
20260905084613 52 0 0.0 0.0 0.00 0.00 0.00 91 1014.6
20260905083049 53 0 0.0 1.0 0.00 0.00 0.00 92 1014.7
20260905081556 54 0 0.0 1.0 0.00 0.00 0.00 92 1014.9
20260905080107 53 0 0.0 1.0 0.00 0.00 0.00 92 1014.6
20260905074609 54 0 0.0 1.0 0.00 0.00 0.00 91 1014.8
20260905073059 54 0 0.0 1.0 0.00 0.00 0.00 91 1014.8
20260905071555 54 0 0.0 1.0 0.00 0.00 0.00 92 1014.7
20260905070111 54 0 0.0 1.0 0.00 0.00 0.00 91 1014.7
20260905064601 54 0 0.0 0.0 0.00 0.00 0.00 90 1014.6
20260905063101 55 0 0.0 1.0 0.00 0.00 0.00 90 1014.6
20260905061613 55 0 0.0 1.0 0.00 0.00 0.00 90 1014.5
20260905054603 57 0 0.0 0.0 0.00 0.00 0.00 88 1014.7
20260905053057 57 0 0.0 0.0 0.00 0.00 0.00 87 1014.7
20260905051602 58 0 0.0 0.0 0.00 0.00 0.00 85 1014.7
20260905050058 59 0 0.0 0.0 0.00 0.00 0.00 85 1014.9
20260905044556 59 0 0.0 0.0 0.00 0.00 0.00 84 1014.9
20260905043105 60 0 0.0 1.0 0.00 0.00 0.00 82 1014.7
20260905041557 60 0 0.0 1.0 0.00 0.00 0.00 81 1014.6
20260905040059 61 76 0.0 1.0 0.00 0.00 0.00 79 1014.3
20260905034604 62 0 0.0 1.0 0.00 0.00 0.00 74 1014.2
20260905033058 63 0 0.0 1.0 0.00 0.00 0.00 72 1014.0
20260905031558 63 0 0.0 1.0 0.00 0.00 0.00 70 1013.9
20260905030056 64 0 0.0 1.0 0.00 0.00 0.00 69 1013.9
20260905024600 65 0 0.0 1.0 0.00 0.00 0.00 67 1013.8
20260905023101 66 0 0.0 1.0 0.00 0.00 0.00 65 1013.9
20260905021557 68 0 0.0 1.0 0.00 0.00 0.00 62 1013.7
20260905020100 70 0 0.0 2.0 0.00 0.00 0.00 59 1013.7
20260905014605 72 271 0.0 3.0 0.00 0.00 0.00 56 1013.8
20260905013104 72 259 0.0 3.0 0.00 0.00 0.00 54 1013.6
20260905011607 73 252 0.0 3.0 0.00 0.00 0.00 54 1013.7
20260905010109 72 0 1.0 4.0 0.00 0.00 0.00 54 1013.6
20260905004603 72 229 1.0 6.0 0.00 0.00 0.00 53 1013.4
20260905003058 73 285 0.0 5.0 0.00 0.00 0.00 53 1013.5
20260905001558 73 259 1.0 5.0 0.00 0.00 0.00 53 1013.5
20260905000105 74 234 0.0 8.0 0.00 0.00 0.00 54 1013.4
20260904234603 74 247 1.0 7.0 0.00 0.00 0.00 55 1013.4
20260904233055 75 256 1.0 4.0 0.00 0.00 0.00 53 1013.2
20260904231557 75 225 1.0 6.0 0.00 0.00 0.00 53 1013.2
20260904230111 75 254 0.0 5.0 0.00 0.00 0.00 53 1013.2
20260904224606 75 0 1.0 7.0 0.00 0.00 0.00 53 1013.2
20260904223100 75 243 1.0 6.0 0.00 0.00 0.00 53 1013.3
20260904221605 75 0 0.0 4.0 0.00 0.00 0.00 55 1013.4
20260904220107 75 276 0.0 10.0 0.00 0.00 0.00 54 1013.5
20260904214603 75 255 1.0 5.0 0.00 0.00 0.00 54 1013.6
20260904213107 74 257 0.0 7.0 0.00 0.00 0.00 55 1013.6
20260904211602 75 223 1.0 8.0 0.00 0.00 0.00 56 1013.6
20260904210111 75 227 0.0 1.0 0.00 0.00 0.00 54 1013.6
20260904204604 73 100 0.0 2.0 0.00 0.00 0.00 54 1013.6
20260904203104 73 279 1.0 5.0 0.00 0.00 0.00 52 1013.7
20260904201610 72 65 0.0 3.0 0.00 0.00 0.00 53 1013.8
20260904200104 72 0 0.0 3.0 0.00 0.00 0.00 58 1013.8
20260904194559 74 193 0.0 1.0 0.00 0.00 0.00 59 1013.9
20260904193103 72 0 0.0 2.0 0.00 0.00 0.00 62 1014.1
20260904191619 70 193 1.0 6.0 0.00 0.00 0.00 65 1014.3
20260904190059 69 186 1.0 3.0 0.00 0.00 0.00 64 1014.4
20260904184609 68 0 0.0 4.0 0.00 0.00 0.00 70 1014.6
20260904183102 67 0 0.0 2.0 0.00 0.00 0.00 70 1014.6
20260904181602 66 0 0.0 3.0 0.00 0.00 0.00 73 1014.6
20260904180059 66 0 0.0 2.0 0.00 0.00 0.00 74 1014.7
20260904174605 65 0 0.0 1.0 0.00 0.00 0.00 78 1014.6
20260904173103 63 185 0.0 3.0 0.00 0.00 0.00 78 1014.6
20260904171604 62 0 0.0 2.0 0.00 0.00 0.00 83 1014.4
20260904170057 61 0 0.0 4.0 0.00 0.00 0.00 89 1014.5
20260904164605 59 0 0.0 2.0 0.00 0.00 0.00 96 1014.5
20260904163101 59 0 0.0 0.0 0.00 0.00 0.00 98 1014.4
20260904161556 56 179 0.0 2.0 0.00 0.00 0.00 96 1014.3